Архів 2017:

Еліта чоловіки
Позиція Загальна позиція Прізвище Ім’я Номер Фінішний час Темп
1 1 Алексей Касьянов 8 2:21:03 1:24
2 2 Володимир Фредюк 4 2:21:57 1:25
3 3 Сергей Гречин 3 2:23:10 1:25
4 4 Leon Hendrik Jan van Bon 9 2:24:33 1:26
5 43 пионтковский дмитрий 2 2:28:20 1:29
6 49 Bruno Boudewijn Bobbink 10 2:31:49 1:31
7 55 KULIKALOV DENIS 1 2:32:55 1:31
8 74 Сергій Мовчан 6 2:34:54 1:32
9 1021 Богдан Ряпосов 7
Еліта жінки
Позиція Загальна позиція Прізвище Ім’я Номер Фінішний час Темп
1 20 Валерия Кононенко 5 2:25:15 1:27
2 23 Иванюк Марина 1468 2:25:16 1:27
3 1022 Шекель Ольга 1467
Шосейні (Ч) — категорія 18-29
Позиція Загальна позиція Прізвище Ім’я Номер Фінішний час Темп
1 5 Артем Орлов 1140 2:24:33 1:26
2 6 Dmitro Volovod 1411 2:25:08 1:27
3 12 Третяк Олексій 1462 2:25:11 1:27
4 15 Георгій Єгіазарян 1114 2:25:13 1:27
5 16 Михаил Ломака 1112 2:25:13 1:27
6 17 George Zamana 1227 2:25:13 1:27
7 18 Рабаев Максим 1097 2:25:14 1:27
8 22 Станіслав Жученко 1412 2:25:16 1:27
9 26 Дмитро Гордєєв 1145 2:25:18 1:27
10 31 Дмитро Ткаліч 1120 2:25:20 1:27
11 36 Сергій Сичов 1175 2:25:26 1:27
12 37 Ігор Сікорський 1430 2:25:26 1:27
13 45 Dmitry Kovalenko 1171 2:31:45 1:31
14 47 Alexey Ilchuk 1004 2:31:48 1:31
15 48 Артем Паращенко 1132 2:31:49 1:31
16 50 Сергій Стасюк 1111 2:31:49 1:31
17 53 Igor Shyrokyy 1363 2:32:20 1:31
18 54 Гадзевич Павло 1086 2:32:54 1:31
19 58 Алесь Есипчук 1438 2:32:58 1:31
20 63 Семененко Роман 1094 2:33:59 1:32
21 65 Anton Kireyeu 1347 2:34:15 1:32
22 68 Максим Коваленко 1215 2:34:15 1:32
23 70 Bohdan Remnov 1201 2:34:18 1:32
24 78 Станислав Ковалев 1185 2:35:05 1:33
25 80 Юрій Розумнюк 1410 2:36:29 1:33
26 84 Кирил Фурсов 1298 2:36:32 1:33
27 85 Морозов Олексій 1079 2:36:32 1:33
28 87 Дмитро Сердюк 1285 2:36:33 1:33
29 89 Жученко Костянтин 1474 2:36:34 1:33
30 93 Ярослав Архипенко 1129 2:36:36 1:33
31 102 Максим Перушко 1136 2:40:16 1:36
32 122 Vyacheslav Goldenshteyn 1116 2:42:55 1:37
33 123 Тарас Ячник 1248 2:42:58 1:37
34 128 Дмитрий Константинович 1018 2:43:00 1:37
35 134 Николай Башмаков 1310 2:43:33 1:38
36 137 Андрій Ольховик 1153 2:46:49 1:40
37 166 Денис Якобчук 1367 2:51:09 1:42
38 174 Максим Дробот 1199 2:52:23 1:43
39 175 Олександр Іванченко 1154 2:52:23 1:43
40 179 Ісаєв Олександр 1090 2:52:28 1:43
41 184 Anton Kulibabenko 1325 2:52:51 1:43
42 187 Віталій Поліщук 1155 2:53:09 1:43
43 188 Ruslan Mikaielian 1151 2:53:12 1:43
44 192 Богдан Рохманіко 1383 2:53:47 1:44
45 208 Кирило Ступка 1270 2:56:17 1:45
46 210 Kolesnichenko Taras 1087 2:57:00 1:46
47 211 Дмитро Блудов 1295 2:57:06 1:46
48 215 Артем Глазунов 1125 2:57:19 1:46
49 225 Александр Шамич 1359 2:59:29 1:47
50 234 Yurii Konoval 1321 3:01:09 1:48
51 243 Деговцов Игорь 1062 3:03:10 1:49
52 250 Павло Собченко 1312 3:03:50 1:50
53 251 Денис Дзядух 1098 3:03:54 1:50
54 256 Кирило Тітов 1282 3:04:19 1:50
55 260 Rog Oleg 1006 3:05:22 1:51
56 261 Pavlo Mishchenko 1394 3:05:25 1:51
57 265 Ващенко Андрій 1100 3:05:55 1:51
58 269 Мельніченко Артем 1091 3:06:56 1:52
59 271 Михайло Свиридюк 1174 3:07:36 1:52
60 273 Анатолий Самойленко 1339 3:07:44 1:52
61 276 Nikita Iliasov 1332 3:07:54 1:52
62 288 Денис Веретенников 1147 3:09:48 1:53
63 301 Кирилл Николенко 1352 3:11:00 1:54
64 304 Олександр Квятковський 1396 3:11:57 1:55
65 307 Денис Василик 1431 3:12:46 1:55
66 309 Артем Койнаш 1180 3:12:53 1:55
67 314 Vladyslav Stefanov 1429 3:13:48 1:56
68 329 Vitaliy Paladiychuk 1076 3:16:02 1:57
69 335 Nikita Tkachenko 1404 3:16:27 1:57
70 341 Pavlo Marutyak 1243 3:16:52 1:58
71 376 Павел Бойко 1406 3:21:57 2:01
72 381 Андрей Степанков 1368 3:23:26 2:02
73 383 Андрей Сиволапенко 1119 3:23:30 2:02
74 384 Anton Makiievskyi 1424 3:23:30 2:02
75 385 Максим Литвинов 1284 3:23:31 2:02
76 392 Олексій Дмитрученко 1293 3:24:22 2:02
77 401 Музика Ярослав 1466 3:25:28 2:03
78 409 Гончаренко Дмитро 1073 3:26:38 2:03
79 422 Иван Иванович 1306 3:27:37 2:04
80 429 Danil Lihovoz 1313 3:28:02 2:04
81 441 Александр Дорофеев 1398 3:28:49 2:05
82 450 Oleksiy Hryshko 1465 3:29:40 2:05
83 453 Andrii Nikolaiev 1220 3:30:19 2:06
84 464 Александр Печалов 1228 3:31:35 2:06
85 467 Денис Буза 1063 3:32:44 2:07
86 477 Руденко Вячеслав 1052 3:34:23 2:08
87 478 Семен Корж 1355 3:34:35 2:08
88 482 Александр Мельник 1370 3:35:23 2:09
89 514 Максим Шкарубо 1348 3:39:05 2:11
90 534 Igor Sotnik 1263 3:42:25 2:13
91 535 Дмитрий Труш 1375 3:42:25 2:13
92 537 Никита Пекарчук 1309 3:43:04 2:13
93 556 Konstantin Marchenko 1258 3:44:55 2:14
94 559 Бойко Антон 1020 3:45:08 2:15
95 620 Прокопенко Олександр 1040 3:53:07 2:19
96 623 Ярослав Пікуль 1305 3:53:22 2:20
97 624 Сергій Вернигора 1302 3:53:22 2:20
98 625 Сергій Герасьов 1242 3:53:38 2:20
99 665 Vadym Denysenko 1365 4:01:48 2:25
100 745 Артем Карпішин 1230 4:15:12 2:33
101 754 Danylo Kyrmach 1328 4:16:15 2:33
102 792 Герасимов Алексей 1472 4:22:35 2:37
103 804 Котик Сергій 1475 4:25:35 2:39
104 873 Mikhail Kostiuchenco 1413 4:38:27 2:47
105 951 Андрій Коточігов 1279 4:59:57 2:59
106 1020 Саттаров Антон 1085 5:49:49 3:29
107 1023 Бульда Ярослав 1007
108 1024 Проноза Ігор 1014
109 1027 Орел Костя 1034
110 1046 Michael Dopira 1142
111 1047 Діма Крикун 1158
112 1048 Oleh Sychevskyi 1162
113 1055 Виталий Лаптенок 1211
114 1057 Олександр Войналович 1229
115 1059 Владимир Егерев 1240
116 1061 Григорій Мироненко 1252
117 1063 Алексей Петренко 1260
118 1073 Mykhailo Maksymenko 1315
119 1079 Андрій Хомицький 1414
120 1080 Александр Егерев 1418
121 1092 Дмитро Данилевський 1478
Шосейні (Ч) — категорія 30-39
Позиція Загальна позиція Прізвище Ім’я Номер Фінішний час Темп
1 7 Олексій Кочін 1234 2:25:09 1:27
2 9 Denis Batiukhov 1296 2:25:10 1:27
3 13 Oleksandr Katsimon 1272 2:25:11 1:27
4 19 Kostya Deneka 1344 2:25:15 1:27
5 27 Dmytro Petrov 1149 2:25:18 1:27
6 29 Денис Гнусин 1292 2:25:20 1:27
7 32 Vladyslav Tsisaruk 1130 2:25:21 1:27
8 35 Борис Бакуринський 1207 2:25:23 1:27
9 38 Антон Фурсов 1297 2:25:26 1:27
10 39 Egor Panchenko 1439 2:25:31 1:27
11 42 Денис Любуцін 1131 2:28:11 1:28
12 44 Alexandr Osypchuk 1105 2:30:42 1:30
13 46 Олександр Дзюба 1133 2:31:47 1:31
14 51 Sergey Sobolev 1123 2:31:50 1:31
15 52 Вадим Евтушенко 1134 2:31:51 1:31
16 59 Олексій Тараненко 1192 2:33:01 1:31
17 61 Никита Грибанов 1441 2:33:06 1:31
18 62 Sergey Illy 1409 2:33:53 1:32
19 64 Андрій Атаманенко 1216 2:34:03 1:32
20 66 Тимофій Седінкін 1334 2:34:15 1:32
21 67 Serge Biliavets 1261 2:34:15 1:32
22 69 Роман Чечуга 1146 2:34:17 1:32
23 72 Dmytro Meleshchenko 1071 2:34:23 1:32
24 79 Владислав Третьяк 1269 2:36:28 1:33
25 81 Vitaliy Chernyakov 1276 2:36:31 1:33
26 82 Максим Савиченко 1403 2:36:31 1:33
27 88 Віталій Драган 1255 2:36:34 1:33
28 90 Юрій Москалик 1183 2:36:35 1:33
29 91 Sergey Kobzarenko 1354 2:36:35 1:33
30 96 Бойко Михаил 2042 2:37:23 1:34
31 97 Щербань Андрій 1024 2:37:40 1:34
32 98 Сергій Верман 1330 2:37:41 1:34
33 103 Олег Войтенко 1028 2:41:11 1:36
34 120 Antoni Mis 1473 2:42:54 1:37
35 124 Олександр Чуб 1345 2:42:58 1:37
36 125 Попков Климент 1013 2:42:58 1:37
37 126 Armen Mosesian 1106 2:42:59 1:37
38 127 Gleb Dolzhikov 1246 2:42:59 1:37
39 129 Василь Максимчук 1357 2:43:01 1:37
40 131 Yevgeniy Trofimchuk 1137 2:43:03 1:37
41 135 Соколов Володимир 1012 2:43:56 1:38
42 138 Igor Kovtun 1266 2:46:49 1:40
43 139 Denys German 1401 2:46:54 1:40
44 140 Oleksandr Vashchuk 1308 2:46:56 1:40
45 141 Антон Даншин 1239 2:46:56 1:40
46 144 Анатолій Панкевич 1159 2:48:52 1:41
47 147 Захарченко Михайло 1075 2:49:04 1:41
48 152 Дорофеєв Олександр 1397 2:49:44 1:41
49 155 Максим Харахаш 1172 2:49:56 1:41
50 157 Андрій Курдій 1144 2:50:01 1:42
51 159 Кузьменко Валерій 1469 2:50:16 1:42
52 170 Leonid Kalinovsky 1388 2:51:55 1:43
53 171 Литвиненко Тарас 1010 2:52:23 1:43
54 173 Юрий Люшневский 1117 2:52:23 1:43
55 176 Покрепа Максим 1002 2:52:25 1:43
56 177 Йонас Рожков 1203 2:52:26 1:43
57 178 Данилюк Аркадій 1092 2:52:28 1:43
58 181 Тарас Петрушак 1400 2:52:30 1:43
59 182 Yaroslav Koval 1392 2:52:39 1:43
60 183 Юрій Гайдай 1422 2:52:43 1:43
61 185 Андрій Дудінський 1186 2:52:55 1:43
62 189 Алексей Корецкий 1407 2:53:20 1:44
63 196 Zhukov Taras 1005 2:54:24 1:44
64 197 Evgen Balan 1178 2:54:27 1:44
65 198 Андрій Товкач 1235 2:54:37 1:44
66 199 Dmitry Strizhov 1225 2:54:45 1:44
67 213 Бебешко Сергій 1030 2:57:18 1:46
68 214 Олег Сеник 1238 2:57:19 1:46
69 216 Михайло Войташевський 1382 2:57:21 1:46
70 219 Богдан Воєводін 1202 2:58:14 1:46
71 221 Максим Волков 1148 2:59:25 1:47
72 226 Сергій Чуєв 1377 2:59:48 1:47
73 228 Ruslan Saulko 1376 2:59:51 1:47
74 230 Шпак Іван 1055 3:00:07 1:48
75 231 Кирилл Венцковский 1041 3:00:32 1:48
76 233 Дмитрий Ульянов 1366 3:01:02 1:48
77 235 Нiкiта Ткаченко 1262 3:01:12 1:48
78 239 Kostiantyn Shkvarko 1173 3:01:57 1:49
79 244 Николаев Виталий 1099 3:03:14 1:49
80 249 Сергей Кошель 1047 3:03:35 1:50
81 253 Василь ПопСтасів 1181 3:04:09 1:50
82 254 Нікогосян Петро 1078 3:04:09 1:50
83 267 Serhii Vichev 1128 3:06:30 1:51
84 277 Yevgen Pavlenko 1184 3:07:58 1:52
85 290 Олександр Люткевич 1103 3:09:51 1:53
86 293 Sergey Shymkovych 1245 3:09:53 1:53
87 308 Сергей Вербицкий 1356 3:12:49 1:55
88 310 Григорий Кудрявцев 1425 3:12:56 1:55
89 317 Сергiй Чуйков 1329 3:14:14 1:56
90 321 Andrey Smetanenko 1029 3:15:20 1:57
91 322 Ivan Syniavskyi 1060 3:15:22 1:57
92 323 Пастух Олександр 1001 3:15:31 1:57
93 326 Evgeny Pokhitun 1009 3:15:38 1:57
94 330 Volodymir Isataev 1058 3:16:11 1:57
95 334 Віталій Кириченко 1303 3:16:27 1:57
96 337 Алексей Погребняк 1456 3:16:35 1:57
97 343 Цимбал Роман 1033 3:16:59 1:58
98 347 Зелененко Юрій 1057 3:17:18 1:58
99 358 Александр Гончар 1378 3:18:25 1:59
100 361 Олександр Абакумов 1126 3:18:51 1:59
101 362 Шишка Ігор 1017 3:18:53 1:59
102 363 Михайло Гапонюк 1405 3:19:03 1:59
103 382 Андрій Кононір 1093 3:23:28 2:02
104 394 Сергій Лещенко 1161 3:24:31 2:02
105 397 Сергій Тищенко 1164 3:24:42 2:02
106 399 Толубко Олексій 1027 3:25:13 2:03
107 400 Андрій Яковенко 1124 3:25:23 2:03
108 408 Максим Махник 1374 3:26:33 2:03
109 418 Сергей Терлецкий 1219 3:27:25 2:04
110 421 Гудков Сергей 1026 3:27:36 2:04
111 423 Володимир Кононський 1311 3:27:38 2:04
112 426 Володимир Козлов 1304 3:27:55 2:04
113 428 Громов Марк 1477 3:27:56 2:04
114 431 Чукашкин Сергей 1072 3:28:12 2:04
115 433 Пасічник Анатолій 1019 3:28:21 2:05
116 442 Красновський Олександр 1037 3:28:56 2:05
117 447 Vlad Rieznikov 1446 3:29:25 2:05
118 448 Eugene Sosnovskiy 1361 3:29:36 2:05
119 449 Дмитрий Литинский 1369 3:29:40 2:05
120 466 Сергій Товстоног 1179 3:32:35 2:07
121 468 Михаил Коваленко 1064 3:32:45 2:07
122 476 Володимир Павліченко 1288 3:34:23 2:08
123 493 Kostiantyn Parashyn 1373 3:36:43 2:10
124 501 Потапенко Ярослав 1008 3:37:15 2:10
125 504 Микола Жуков 1379 3:38:03 2:10
126 511 Сергей Немченко 1222 3:38:55 2:11
127 516 Kolomiitsev Leonid 1069 3:40:09 2:12
128 524 Кирилл Кудинов 1198 3:41:11 2:12
129 527 Andrey Chupakov 1420 3:41:32 2:12
130 529 Миселюк Сергей 1457 3:41:41 2:13
131 533 Igor Stadnyk 1259 3:42:20 2:13
132 536 Sasha Burlaka 1214 3:42:37 2:13
133 539 Andrey Bogush 1095 3:43:24 2:14
134 551 Ігор Ковальчук 1236 3:44:23 2:14
135 555 Олексій Костецький 1450 3:44:50 2:14
136 582 Valerii Borovskyi 1221 3:48:39 2:17
137 589 Игорь Лескив 1417 3:49:06 2:17
138 600 Ігор Пліса 1264 3:49:57 2:17
139 616 Evgeniy Bachinskiy 1323 3:52:19 2:19
140 645 Andrey Nesterov 1408 3:58:59 2:23
141 646 Денис Пахомов 1338 3:58:59 2:23
142 667 Енвер Кікава 1445 4:02:02 2:25
143 668 Андрій Сухов 1444 4:02:02 2:25
144 679 Evgen Lyulevich 1200 4:04:25 2:26
145 687 Дмитрий Хоменко 1281 4:05:20 2:27
146 704 Олександр Баккалінський 1371 4:07:00 2:28
147 722 Alexander Kovalchuk 1244 4:10:10 2:30
148 726 Kudrenko Bohdan 1065 4:10:57 2:30
149 739 Артем Жебровський 1415 4:13:41 2:32
150 742 Глеб Случаевский 1421 4:14:30 2:32
151 762 Дмитрий Киселев 1307 4:17:41 2:34
152 783 Oleksii Pieshkov 1084 4:20:59 2:36
153 795 Tezikov Yegor 1011 4:23:07 2:37
154 806 Юрій Лясковець 1436 4:25:46 2:39
155 807 Sergey Sova 1176 4:25:56 2:39
156 814 Шевчук Анатолій 1080 4:27:10 2:40
157 824 Станислав Ткач 1360 4:28:42 2:41
158 828 Богдан Глузд 1102 4:29:59 2:41
159 830 Aleksandr Dubrovin 1152 4:30:07 2:42
160 896 Алексей Коробов 1384 4:44:53 2:50
161 927 Максимчук Александр 1461 4:53:29 2:56
162 936 Alex Zymnyk 1453 4:56:54 2:58
163 1028 Бондаренко Алексей 1035
164 1029 Хохлов Денис 1039
165 1030 Осипенко Андрій 1045
166 1032 Shevchyk Borys 1048
167 1033 Morozov Pavlo 1049
168 1035 Кутасов Андрей 1056
169 1036 Рожанський Олександр 1059
170 1037 Vodopianov Sergey 1070
171 1038 Гридасов Олексій 1077
172 1039 Андрей Паламарчук 1082
173 1040 Булах Дмитро 1096
174 1041 Alexey Podrezov 1108
175 1042 Ігор Єременко 1115
176 1045 Славик Кочур 1141
177 1049 Карен Тарасенко 1168
178 1050 Михайло Кучук 1169
179 1052 Batur Bayman 1187
180 1054 Віктоо Калатай 1190
181 1058 Дмитро Олексійович Морозов 1232
182 1062 Саша Бу 1254
183 1064 Oleksii Volosian 1267
184 1066 Руслан Веревський 1273
185 1070 Андрiй Чеботарьов 1286
186 1072 Eugene Vladimirov 1301
187 1074 Олександр Різун 1336
188 1076 Yaroslav Misiats 1385
189 1078 Євген Хенкін 1402
190 1081 Олександр Чемодуров 1419
191 1083 Никита Иванович 1440
192 1084 Володимир Старчик 1442
193 1087 Олексій Катасонов 1455
194 1090 Ніщета Генадій 1460
Шосейні (Ч) — категорія 40-49
Позиція Загальна позиція Прізвище Ім’я Номер Фінішний час Темп
1 8 Заика Василий 1256 2:25:10 1:27
2 10 Андрей Козаченко 1210 2:25:11 1:27
3 11 Viktor Fedorov 1253 2:25:11 1:27
4 14 Ігор Хижняк 1294 2:25:12 1:27
5 24 Олексій Коняєв 1448 2:25:17 1:27
6 25 Юрій Аракелян 1231 2:25:17 1:27
7 28 Гринь Александр 1471 2:25:19 1:27
8 30 Саша Голубенко 1150 2:25:20 1:27
9 33 Дмитрий Филин 1249 2:25:22 1:27
10 41 Игорь Митянин 1274 2:26:02 1:27
11 73 Evgen Borysenko 1165 2:34:25 1:32
12 86 Alexander Narkevich 1250 2:36:32 1:33
13 99 Петро Зубчевський 1380 2:38:54 1:35
14 100 Денис Сімковський 1015 2:39:09 1:35
15 101 Юрковский Антон 1101 2:40:14 1:36
16 104 Долженко Павло 1016 2:41:13 1:36
17 121 Олег Поліщук 1340 2:42:54 1:37
18 132 Роман Завада 1393 2:43:04 1:37
19 133 Сергій Левченко 1322 2:43:04 1:37
20 165 Oleksander Ruhadze 1320 2:50:58 1:42
21 168 Олексій Вініченко 1300 2:51:31 1:42
22 172 Jared Scott Kirkpatrick 1464 2:52:23 1:43
23 191 Dmytro Pilipenko 1021 2:53:38 1:44
24 209 Константин Левитов 1160 2:56:34 1:45
25 212 Вадим Пишняк 1317 2:57:08 1:46
26 222 Віталій Караченко 1224 2:59:26 1:47
27 224 Vladimir Nosov 1287 2:59:26 1:47
28 229 Погойда Володимир 1061 3:00:01 1:48
29 238 Таранович Владислав 1022 3:01:40 1:49
30 240 Дима Юринов 1319 3:02:00 1:49
31 252 Юрій Шевчук 1362 3:04:02 1:50
32 255 Косодрига Стас 1031 3:04:14 1:50
33 257 Стецков Олександр 1074 3:04:48 1:50
34 259 Максим Товстиженко 1156 3:05:08 1:51
35 268 Volodymyr Roman 1054 3:06:40 1:52
36 274 Дмитро Тарабакін 1143 3:07:47 1:52
37 275 Медведь Белый 1437 3:07:50 1:52
38 284 Ігор Касьян 1233 3:09:14 1:53
39 285 Пілецький Станіслав 1003 3:09:16 1:53
40 286 куровський олег 1051 3:09:16 1:53
41 294 Viacheslav Lanin 1390 3:10:09 1:54
42 295 Вадим Чемер 1386 3:10:13 1:54
43 305 Юрий Шишлов 1335 3:12:22 1:55
44 306 Олександр Горган 1341 3:12:34 1:55
45 327 Олександр Родрігес 1213 3:15:47 1:57
46 328 Сергій Подлубний 1182 3:15:56 1:57
47 366 Андрій Маркотенко 1451 3:19:15 1:59
48 370 Токаренко Ярослав 1280 3:20:10 2:00
49 389 Aleksey Furtsev 1358 3:23:47 2:02
50 390 Александр Поташев 1290 3:23:50 2:02
51 419 Круковський Олексій 1068 3:27:26 2:04
52 432 Роман Радько 1364 3:28:16 2:04
53 452 Bondaryev Timur 1066 3:30:04 2:06
54 454 Антіпов Роман 1044 3:30:27 2:06
55 465 Сергей Сиунов 1043 3:31:58 2:07
56 480 Олександр Гаркавенко 1318 3:35:20 2:09
57 526 Vitaliy Prokopchuk 1381 3:41:31 2:12
58 549 Олександр Голота 1299 3:44:11 2:14
59 563 Володимир Бубела 1193 3:45:44 2:15
60 631 Александр Зленко 1391 3:55:04 2:21
61 652 Vadim Pastushenko 1333 3:59:55 2:23
62 656 Сторожук Олег 1042 4:00:12 2:24
63 669 Валерій Кондаков 1443 4:02:02 2:25
64 771 Сорочинський Андрей 1036 4:18:50 2:35
65 952 Oleksandr Tretiak 1195 4:59:59 2:59
66 966 PAVLO MARUSYK 1212 5:06:30 3:03
67 968 DMYTRO SERKOV 1316 5:07:23 3:04
68 1025 Лопатін Денис 1023
69 1031 Nelson Kevin 1046
70 1034 Левитов Константин 1050
71 1044 Anatoliy Drozdov 1138
72 1051 Максим Москаленко 1177
73 1053 Eugene Mysin 1189
74 1056 Анатолий Карпенко 1217
75 1065 Браян Бест 1268
76 1067 Андрей Веревский 1275
77 1069 Vlad Sokhnich 1283
78 1071 ЮРІЙ МЕРЩІЙ 1291
79 1075 Alexander Gorlov 1346
80 1077 Віктор Литвиненко 1387
81 1089 ДрачкоЄрмоленко Євген 1459
Шосейні (Ч) — категорія 50-59
Позиція Загальна позиція Прізвище Ім’я Номер Фінішний час Темп
1 34 святослав шурупов 1226 2:25:22 1:27
2 40 Игорь Гримайло 1428 2:26:00 1:27
3 56 Сергей Тополь 1191 2:32:56 1:31
4 57 Ігор Тимков 1435 2:32:57 1:31
5 71 Сергей Аржанов 1107 2:34:19 1:32
6 75 Образцов Василий 1427 2:34:57 1:32
7 83 Viktor Jazenok 1038 2:36:32 1:33
8 94 Viktor Віктор 1104 2:37:03 1:34
9 95 Юрий Красун 1416 2:37:11 1:34
10 158 Sergey Vasenin 1121 2:50:08 1:42
11 164 Олександр Кузьменко 1350 2:50:49 1:42
12 204 Юрій Янчиков 1209 2:55:47 1:45
13 206 Chigarev Vitality 1081 2:56:08 1:45
14 218 Кривший Олег 1479 2:57:37 1:46
15 242 Yuriy Fomin 1188 3:03:02 1:49
16 292 Сергій Харчук 1353 3:09:52 1:53
17 336 Олександр Стам 1327 3:16:30 1:57
18 348 Сергей Бабич 1372 3:17:21 1:58
19 391 Андрій Гурський 1166 3:24:14 2:02
20 470 Ігор Троценко 1223 3:33:04 2:07
21 498 Шульга Борис 1088 3:37:03 2:10
22 503 Смирнов Олександр 1067 3:37:25 2:10
23 505 Сергей Степанец 1196 3:38:05 2:10
24 548 Борис Бровченко 1257 3:44:07 2:14
25 693 Дмитро Золотько 1337 4:05:59 2:27
26 765 Владимир Демешко 1194 4:17:49 2:34
27 1085 Гійом / Guillaume Шойрер / Scheurer 1447
28 1091 Кривошей Олег 1476
Шосейні (Ч) — категорія 60-69
Позиція Загальна позиція Прізвище Ім’я Номер Фінішний час Темп
1 21 Станіслав Титаренко 1426 2:25:16 1:27
2 190 Костянтин Павловський 1218 2:53:27 1:44
3 338 Андрей Старчик 1395 3:16:50 1:58
4 353 Oleksandr Rakytianskyi 1170 3:18:05 1:58
5 379 Петро Троп 1205 3:22:32 2:01
Шосейні (Ч) — категорія 70+
Позиція Загальна позиція Прізвище Ім’я Номер Фінішний час Темп
1 697 Володимир Зюлковський 1342 4:06:14 2:27
Шосейні (Ж) — категорія 18-29
Позиція Загальна позиція Прізвище Ім’я Номер Фінішний час Темп
1 92 Oksana Sugakova 1343 2:36:35 1:33
2 145 Юлія Стасюк 1110 2:48:56 1:41
3 180 Лідія Басмат 1127 2:52:30 1:43
4 205 Yulia Kostenyuk 1163 2:55:48 1:45
5 258 Вікторія Нагорна 1167 3:04:48 1:50
6 266 Алексей Скриплев 1206 3:05:57 1:51
7 350 Софія Любарська 1434 3:17:36 1:58
8 440 Віра Красуля 1247 3:28:46 2:05
9 506 Мария Шевченко 1351 3:38:07 2:10
10 721 Ольга Горницька 1449 4:10:04 2:30
11 743 Крапивкина Елен 1470 4:14:48 2:32
12 761 Катерина Старчеус 1423 4:17:29 2:34
13 864 Анастасія Поплавська 1389 4:36:48 2:46
14 918 Дарья Варга 1083 4:52:23 2:55
15 964 Наталія Кедис 1331 5:05:16 3:03
16 1026 Лопатіна Валєрія 1025
17 1043 Алина Кныш 1118
18 1060 Маргарита Воронцова 1241
19 1068 Lita Levyts’kaja 1277
Шосейні (Ж) — категорія 30-39
Позиція Загальна позиція Прізвище Ім’я Номер Фінішний час Темп
1 60 Ганна Вергелес 1314 2:33:02 1:31
2 289 Olesya Malyuga 1251 3:09:49 1:53
3 340 Олена Акхметшина 1265 3:16:51 1:58
4 344 Mila Kolesnyk 1452 3:16:59 1:58
5 481 Олександра Бриленко 1278 3:35:21 2:09
6 499 Svetlana Klich 1053 3:37:03 2:10
7 532 Руслана Смищук 1399 3:42:17 2:13
8 538 Oleksandra Pryhoda 1122 3:43:21 2:14
9 574 Лисаченко Анна 1032 3:47:24 2:16
10 594 Irina Ilchenko 1324 3:49:22 2:17
11 617 Ольга Бачинська 1349 3:52:21 2:19
12 627 Роман Крупцала 1326 3:54:21 2:20
13 712 Оксана Коваль 1197 4:08:00 2:28
14 805 Катерина Іванова 1271 4:25:45 2:39
15 931 Олена Стунгур 1237 4:54:51 2:56
16 990 Савич Ірина 1089 5:17:18 3:10
17 1086 Ирина Беленькая 1454
18 1088 Рябоконь Тетяна 1458
Шосейні (Ж) — категорія 40-49
Позиція Загальна позиція Прізвище Ім’я Номер Фінішний час Темп
1 201 Вікторія Нестерова 1204 2:55:16 1:45
2 245 Наталья Радушинская 1208 3:03:15 1:49
3 282 Tanya Nesterchuk 1139 3:09:12 1:53
4 339 Tetyana Grygor’yeva 1432 3:16:50 1:58
5 410 Nataliia Franchuk 1289 3:26:39 2:03
6 483 Анжелла Кузьменко 1113 3:35:24 2:09
7 790 Любов Коломієць 1109 4:22:26 2:37
8 1082 Olga Chubai 1433
Шосейні (Ж) — категорія 70+
Позиція Загальна позиція Прізвище Ім’я Номер Фінішний час Темп
1 402 Юлия Марчук 1135 3:25:34 2:03
Гірські велосипеди (Ч) 18-29
Позиція Загальна позиція Прізвище Ім’я Номер Фінішний час Темп
1 106 Vitalii Zubchenko 2411 2:42:19 1:37
2 107 Дмитрий Блонский 2533 2:42:20 1:37
3 108 Євген Шилов 2586 2:42:20 1:37
4 109 Андрей Хоменко 2569 2:42:22 1:37
5 113 Олександр Біляєв 2186 2:42:23 1:37
6 118 Вячеслав Ясинецький 2211 2:42:26 1:37
7 136 Олександр Руденко 2225 2:43:59 1:38
8 143 Майстренко Костянтин 2126 2:48:47 1:41
9 186 Олександр Медведєв 2205 2:53:08 1:43
10 194 Брюссель 2624 2:54:24 1:44
11 203 Владимир Андрушко 2318 2:55:45 1:45
12 207 Євген Нестерець 2468 2:56:08 1:45
13 232 Ярослав Колосенко 2353 3:00:44 1:48
14 237 Івасенко Денис 2261 3:01:27 1:48
15 246 Володимир Федоров 2321 3:03:28 1:50
16 247 Олексій Сіденко 2276 3:03:32 1:50
17 248 Андрей Сухинин 2402 3:03:32 1:50
18 262 Олександр Грибенюк 2234 3:05:46 1:51
19 263 Олександр Казанець 2325 3:05:46 1:51
20 264 Андій Котляр 2368 3:05:46 1:51
21 281 Микола Карапась 2561 3:08:45 1:53
22 291 Артём Соболев 2207 3:09:51 1:53
23 296 Крючек Михаил 2114 3:10:18 1:54
24 299 Roma Trygubov 2249 3:10:43 1:54
25 300 Арешков Олексій 2086 3:10:54 1:54
26 315 Baranov Oleksii 2144 3:14:05 1:56
27 333 Ihor Polonskyi 2182 3:16:25 1:57
28 355 Алексей Пасько 2230 3:18:12 1:58
29 368 Ігор Волинець 2239 3:19:34 1:59
30 374 Dan Tychkov 2546 3:21:31 2:00
31 388 Artem Grynenko 2335 3:23:46 2:02
32 407 Vitaliy Rusavskiy 2378 3:26:31 2:03
33 415 Yurii Petrenko 2426 3:27:09 2:04
34 416 Никитин Антон 2143 3:27:15 2:04
35 427 Anton Poltavets 2303 3:27:56 2:04
36 438 Viacheslav Hunko 2327 3:28:45 2:05
37 446 Ігор Ващенко 2535 3:29:21 2:05
38 451 Олексієнко Ігор 2617 3:29:55 2:05
39 459 Алексей Торош 2553 3:31:08 2:06
40 460 Гніздіцький Віталій 2045 3:31:14 2:06
41 473 Oleksandr Kotusenko 2579 3:33:29 2:08
42 497 Костянтин Трифонов 2252 3:36:55 2:10
43 500 Alexandr Ovsyannikov 2245 3:37:07 2:10
44 508 Валентин Венедіктов 2248 3:38:26 2:11
45 509 Куций Михайло 2035 3:38:26 2:11
46 510 Сергій Карповець 2027 3:38:28 2:11
47 513 Artem Pedchenko 2489 3:39:05 2:11
48 515 Макс Данченко 2289 3:39:23 2:11
49 522 Ростислав Майгур 2369 3:41:05 2:12
50 523 Kolesnik Vova 2014 3:41:07 2:12
51 542 Ярослав Заєць 2570 3:43:40 2:14
52 546 Олександр Вареник 2370 3:43:58 2:14
53 547 Демешко Данил 2030 3:43:59 2:14
54 553 Семен Коцюруба 2371 3:44:48 2:14
55 567 Олексій Валевач 2241 3:46:06 2:15
56 570 Дмитро Шаров 2226 3:46:38 2:15
57 572 Ярослав Мошненко 2456 3:46:59 2:16
58 576 Артем Васильєв 2174 3:47:43 2:16
59 578 Алексей Орлов 2296 3:47:55 2:16
60 590 Євген Пустоход 2311 3:49:08 2:17
61 593 Федченко Артём 2146 3:49:20 2:17
62 601 Andrew Karamian 2594 3:50:00 2:18
63 614 Васін Андрій 2049 3:52:11 2:19
64 621 Олександр Соловей 2393 3:53:09 2:19
65 633 Захар Рыжов 2364 3:55:38 2:21
66 634 Кенденков Алексей 2613 3:55:43 2:21
67 635 Pustovoit Maksym 2405 3:55:55 2:21
68 638 Корнієнко Дмитро 2020 3:57:17 2:22
69 640 Олександр Крячек 2118 3:58:32 2:23
70 644 Константин Зализко 2175 3:58:53 2:23
71 650 Аркадій Руденко 2374 3:59:39 2:23
72 651 Данила Дорофеев 2178 3:59:46 2:23
73 658 Іван Блінов 2384 4:00:23 2:24
74 663 Беликов Владимир 2148 4:01:28 2:24
75 674 Олег Гордієнко 2480 4:03:30 2:26
76 677 Ярослав Щекланов 2347 4:04:19 2:26
77 681 Олександр Помаз 2218 4:04:46 2:26
78 684 Dmytro Shumygora 2332 4:05:00 2:27
79 688 Сергей Боголей 2242 4:05:24 2:27
80 692 Юрий Оноприенко 2119 4:05:56 2:27
81 694 Олексій Фелді 2240 4:06:05 2:27
82 696 Андрій Горєлов 2172 4:06:12 2:27
83 698 Пеньковський Сергій 2142 4:06:22 2:27
84 700 Rudolf Medvedev 2220 4:06:26 2:27
85 720 Andrii Iushchuk 2291 4:10:01 2:30
86 723 Bohdan Pohasii 2448 4:10:23 2:30
87 724 Євген Лазоренко 2513 4:10:35 2:30
88 725 Владимир Силантьев 2394 4:10:37 2:30
89 731 Павло Никитюк 2556 4:11:55 2:31
90 732 Dmitry Prutkevich 2453 4:12:20 2:31
91 734 Дорожинський Антон 2106 4:12:36 2:31
92 735 Serov Alex 2588 4:12:53 2:31
93 747 Степаненко Володимир 2605 4:15:15 2:33
94 748 Федiр Некрасов 2442 4:15:45 2:33
95 750 Ілля Шимшит 2501 4:16:01 2:33
96 752 Олексій Василенко 2260 4:16:09 2:33
97 777 Кирило Горський 2511 4:19:58 2:35
98 784 Kostya Tkachuk 2286 4:21:29 2:36
99 786 Дорошенко Дмитро 2637 4:21:49 2:37
100 788 Коваленко Артем 2080 4:22:12 2:37
101 797 Пeтро Бочуля 2323 4:23:29 2:38
102 813 Антон Целуйко 2476 4:26:58 2:40
103 820 Прус Роман 2021 4:28:16 2:40
104 821 Павло Пастушенко 2512 4:28:20 2:41
105 823 Горбанський Андрій 2636 4:28:38 2:41
106 827 Nijat Pishnamazzada 2452 4:29:53 2:41
107 829 Alex Kolisnychenko 2313 4:30:04 2:42
108 833 Констянтин Полищук 2430 4:30:26 2:42
109 834 Денис Ковальчук 2558 4:30:27 2:42
110 836 Колос Юрій 2128 4:30:49 2:42
111 837 Матвій Грень 2198 4:30:56 2:42
112 838 Ракитянский Влад 2108 4:31:42 2:43
113 844 Констянтин Марчук 2474 4:32:54 2:43
114 847 Владислав Штефан 2306 4:33:20 2:44
115 850 Serhii Moroz 2555 4:33:41 2:44
116 853 Артём Сорокин 2587 4:33:58 2:44
117 854 Богдан Деркач 2425 4:34:17 2:44
118 856 Дмитро Чорний 2158 4:34:25 2:44
119 859 Vitalii Nakonechnyi 2440 4:35:05 2:45
120 860 Михайло Тяглий 2478 4:35:06 2:45
121 879 Сергій Лукашенко 2514 4:39:53 2:47
122 888 Денис Антоненко 2132 4:43:19 2:49
123 892 Савчук Олександр 2151 4:44:13 2:50
124 902 Pavel Kitsayev 2507 4:46:00 2:51
125 905 Микита Шкарупа 2341 4:47:38 2:52
126 920 Микола Рудик 2187 4:52:34 2:55
127 940 Мудрак Артем 2137 4:57:28 2:58
128 942 Олександр Поворознюк 2565 4:57:42 2:58
129 944 Валерий Белоенко 2407 4:58:13 2:58
130 947 Karetin Eugeny 2066 4:58:23 2:59
131 950 Rens van Wingerden 2451 4:58:47 2:59
132 953 Юрій Крижановський 2386 5:00:09 3:00
133 955 Вячеслав Кукса 2503 5:00:10 3:00
134 961 Ніколаєв Костянтин 2155 5:02:48 3:01
135 965 Антон Феоктістов 2011 5:05:50 3:03
136 971 Ляшенко Іван 2022 5:08:09 3:04
137 974 Oleksii Gorban 2444 5:09:37 3:05
138 977 Володимир Росіцький 2380 5:10:11 3:06
139 978 Максим Крупко 2432 5:11:09 3:06
140 1000 Alex Rudniev 2292 5:22:57 3:13
141 1004 Сліпченко Валентин 2115 5:29:12 3:17
142 1005 Oleksandr Sheiko 2465 5:29:55 3:17
143 1007 Денис Стахнік 2336 5:32:57 3:19
144 1008 Сергій Ракушин 2568 5:34:17 3:20
145 1009 Artem Karpenko 2267 5:37:31 3:22
146 1015 Іван Трефілов 2567 5:42:22 3:25
147 1017 Євген Москаленко 2180 5:42:42 3:25
148 1019 Егор Гречушкин 2391 5:45:06 3:27
149 1112 Шевчук Микола 2105
150 1114 Михайло Койдан 2168
151 1116 Ігор Цвєт 2184
152 1121 Микита Ларіонов 2236
153 1124 Олександр Ковальчук 2272
154 1139 Костянтин Пузік 2395
155 1141 Олександр Коломієць 2416
156 1147 Oleksiy Hryshko 2484
157 1153 Сергій Галас 2529
158 1155 Андрій Ржепішевський 2566
159 1156 Roman Avrakh 2572
160 1158 Галабурда Роман 2600
161 1170 Сидор Роман 2630
Гірські велосипеди (Ч) 30-39
Позиція Загальна позиція Прізвище Ім’я Номер Фінішний час Темп
1 105 Yury Кресан 2071 2:42:19 1:37
2 110 Олександр Шевченко 2179 2:42:22 1:37
3 111 Ружинський Владислав 2094 2:42:22 1:37
4 112 Борис Свіргуненко 2392 2:42:23 1:37
5 114 Рибаков Сергій 2095 2:42:23 1:37
6 115 Orlyanskiy Andrey 2038 2:42:24 1:37
7 116 Володимир Шиліжинський 2343 2:42:24 1:37
8 119 Dudko Mykola 2018 2:42:32 1:37
9 146 Александр Заславский 2085 2:48:57 1:41
10 161 Буйваленко Алексей 2087 2:50:22 1:42
11 200 Александр Пятковский 2576 2:55:12 1:45
12 217 Олександр Диченко 2171 2:57:33 1:46
13 223 Сергій Кольцов 2500 2:59:26 1:47
14 270 Олексій Пилипчук 2165 3:07:30 1:52
15 272 Олег Яцив 2298 3:07:40 1:52
16 278 Андрей Копыл 2199 3:08:10 1:52
17 280 Oleksii Sierik 2006 3:08:37 1:53
18 283 Iurii Iashchuk 2399 3:09:12 1:53
19 287 Aleksandr Fedorov 2521 3:09:36 1:53
20 297 Юрій Баранов 2482 3:10:31 1:54
21 298 Dmitriy Zakharchenko 2034 3:10:31 1:54
22 303 Вадим Тутик 2397 3:11:38 1:54
23 311 Тимчак Олександр 2130 3:13:15 1:55
24 313 Novikov Andriy 2120 3:13:39 1:56
25 320 Vikto Sulyma 2223 3:14:54 1:56
26 331 Науменко Павло 2073 3:16:15 1:57
27 332 Олег Верцимак 2523 3:16:15 1:57
28 345 Удовенко Алексей 2067 3:17:04 1:58
29 349 Стьопічев Олексій 2083 3:17:23 1:58
30 352 Dima Shevelev 2446 3:18:01 1:58
31 354 Гудима Вадим 2096 3:18:08 1:58
32 356 Олександр Неволько 2536 3:18:13 1:58
33 357 Гоменюк Олександр 2598 3:18:15 1:58
34 360 Андрiй Фiлiн 2438 3:18:37 1:59
35 364 Pivovar Oleksander 2084 3:19:08 1:59
36 365 Вадим Осінський 2200 3:19:10 1:59
37 367 Артем Авраменко 2401 3:19:17 1:59
38 369 Максим Козій 2275 3:20:06 2:00
39 371 Nikolay Belov 2589 3:20:34 2:00
40 373 Риба Клєй 2564 3:21:21 2:00
41 393 Владимир Комлев 2305 3:24:26 2:02
42 395 Konstantin Karachov 2538 3:24:32 2:02
43 403 Maksym Feshchenko 2032 3:25:41 2:03
44 404 Дмитро Ліпчанчук 2237 3:25:54 2:03
45 405 Олег Гринюк 2423 3:26:17 2:03
46 406 Сергей Ковальчук 2319 3:26:19 2:03
47 411 Александр Венедиктов 2326 3:26:58 2:04
48 420 Виталий Ковальчук 2375 3:27:34 2:04
49 425 Vitaly Voloshin 2287 3:27:55 2:04
50 435 Khodzitsky Ruslan 2486 3:28:27 2:05
51 439 Борзенков Станіслав 2602 3:28:46 2:05
52 443 Хмара Олексій 2134 3:29:06 2:05
53 444 Эдуард Тесленко 2338 3:29:06 2:05
54 456 Ден Селезньов 2232 3:30:36 2:06
55 458 Віталій Горчук 2581 3:31:01 2:06
56 462 Євген Богма 2235 3:31:28 2:06
57 463 Лісогорський Олександр 2627 3:31:29 2:06
58 469 Aleksandr Ponomarenko 2547 3:33:00 2:07
59 472 Ярослав Демешко 2373 3:33:22 2:08
60 475 Олександр Матвієнко 2481 3:34:03 2:08
61 484 Bielash Vitaliy 2548 3:35:26 2:09
62 485 Шумарин Андрей 2072 3:35:41 2:09
63 486 Олексій Корніенко 2271 3:36:00 2:09
64 488 Maxim Yurkiv 2201 3:36:03 2:09
65 489 Євгеній Римаренко 2449 3:36:17 2:09
66 490 Андрій Назаренко 2282 3:36:33 2:09
67 491 Дмитрий Иснюк 2314 3:36:42 2:10
68 495 Sergey Okun 2191 3:36:44 2:10
69 496 Max Romanov 2002 3:36:52 2:10
70 507 Шамборовський Петро 2044 3:38:15 2:10
71 512 Кирилл Хиленко 2622 3:38:56 2:11
72 517 Kiprov Igor 2060 3:40:29 2:12
73 518 Костянтин Макаров 2542 3:40:30 2:12
74 519 Alexander Ponomaryov 2229 3:40:43 2:12
75 521 Aleksandr Demydchuk 2436 3:41:04 2:12
76 528 Олег Жуков 2414 3:41:35 2:12
77 530 Roman Dyvnych 2492 3:41:45 2:13
78 531 Сергей Степанчук 2167 3:41:56 2:13
79 540 Александр Дятлов 2216 3:43:27 2:14
80 544 Гапеєв Вячеслав 2479 3:43:53 2:14
81 545 Oleksandr Lapshyn 2160 3:43:57 2:14
82 550 Вадим Кудрик 2043 3:44:15 2:14
83 552 Ярослав Ягодинець 2470 3:44:44 2:14
84 554 Ivan Golovlov 2328 3:44:48 2:14
85 557 Штань Андрій 2039 3:44:58 2:14
86 558 Konstantin Kozachenko 2300 3:45:01 2:15
87 560 Богдан Власенко 2315 3:45:23 2:15
88 562 Дяконенко Андрій 2053 3:45:41 2:15
89 568 Сергей Билоус 2537 3:46:13 2:15
90 569 Пылаев Александр 2076 3:46:37 2:15
91 577 Виктор Пришляк 2037 3:47:50 2:16
92 580 Олександр Карпій 2506 3:48:21 2:17
93 581 Владимир Зибин 2388 3:48:28 2:17
94 583 Андрiй Кокiн 2345 3:48:40 2:17
95 585 Дмитренко Іван 2024 3:48:54 2:17
96 587 Пасічник Павло 2092 3:48:58 2:17
97 592 Александр Бомбенко 2491 3:49:15 2:17
98 596 Самойлов Олексій 2212 3:49:30 2:17
99 597 Хомяков Олександр 2152 3:49:34 2:17
100 599 Igor Hladchenko 2573 3:49:50 2:17
101 602 Vasily Karamian 2593 3:50:02 2:18
102 605 Юрій Поляновський 2215 3:51:09 2:18
103 608 Олексій Хмелько 2433 3:51:15 2:18
104 609 Думанчук Вадим 2599 3:51:20 2:18
105 610 Віталій Зуєнко 2221 3:51:40 2:19
106 613 Иван Ярмола 2540 3:52:07 2:19
107 618 Pavel Vetokh 2019 3:52:50 2:19
108 619 Дмитро Омеляненко 2162 3:53:03 2:19
109 629 Станислав Сницаренко 2007 3:54:45 2:20
110 641 Сергій Лемещук 2206 3:58:44 2:23
111 642 Artem Bibik 2070 3:58:46 2:23
112 643 Сергей Микитенко 2571 3:58:48 2:23
113 647 Олександр Старик 2273 3:59:04 2:23
114 649 Sergey Klok 2396 3:59:19 2:23
115 653 Anton Dydichenko 2346 3:59:56 2:23
116 654 Віталій Лисенко 2495 3:59:57 2:23
117 657 Dimitri Artemov 2204 4:00:15 2:24
118 659 Леонід Катрук 2473 4:00:28 2:24
119 664 Vladimir Zavyazun 2285 4:01:39 2:24
120 666 Андрій Бурлака 2354 4:01:58 2:25
121 671 Євген Соколовський 2524 4:02:26 2:25
122 673 Андрій Михайлов 2439 4:03:22 2:26
123 675 Jack Cooper 2277 4:04:01 2:26
124 680 Олександр Тхор 2437 4:04:44 2:26
125 682 Віктор Плут 2467 4:04:47 2:26
126 683 Слава Генсюровський 2485 4:04:59 2:26
127 685 Володимир Павленко 2499 4:05:02 2:27
128 691 Кращенко Сергій 2279 4:05:55 2:27
129 695 Андрей Поляновский 2463 4:06:09 2:27
130 707 Володимир Савченко 2528 4:07:10 2:28
131 708 Макс Корицький 2329 4:07:19 2:28
132 711 Віталій Васильченко 2270 4:07:59 2:28
133 713 Сергій Горобець 2583 4:08:15 2:28
134 716 Ілля Вознюк 2166 4:09:00 2:29
135 717 Ковалик Олег 2004 4:09:41 2:29
136 718 Broemling Gregor 2065 4:09:47 2:29
137 727 Юрій Кучерявий 2545 4:11:02 2:30
138 728 Григорович Юрій 2099 4:11:06 2:30
139 729 Павло Кононрв 2490 4:11:07 2:30
140 736 Sergiy Babakin 2544 4:13:06 2:31
141 744 Petr Kupriiec 2188 4:14:48 2:32
142 751 Георгій Шварцман 2113 4:16:06 2:33
143 753 Роман Кірдей 2419 4:16:12 2:33
144 755 Роман Дмитренко 2434 4:16:19 2:33
145 756 Яцута Іван 2626 4:16:25 2:33
146 759 Кравець Максим 2125 4:17:24 2:34
147 768 Evgeny Kalinin 2457 4:18:22 2:35
148 769 Sytniuk Igor 2127 4:18:33 2:35
149 770 Галстян Геворк 2063 4:18:40 2:35
150 772 Олександр Закоморний 2376 4:19:04 2:35
151 773 Кашканов Володимир 2025 4:19:10 2:35
152 775 Станислав Подкопай 2302 4:19:26 2:35
153 779 Буднік Сагот 2150 4:20:13 2:36
154 781 Хоменко Святослав 2093 4:20:58 2:36
155 782 Держалюк Андрій 2634 4:20:58 2:36
156 785 Костя Поминальный 2580 4:21:44 2:37
157 787 Матьора Руслан 2578 4:21:53 2:37
158 789 Sergey Lawrinenko 2173 4:22:16 2:37
159 793 Денис Бурий 2459 4:22:45 2:37
160 794 Віталій Мацелюх 2290 4:22:51 2:37
161 796 Dima Koshlyak 2017 4:23:16 2:37
162 800 Serhii Svirchuk 2488 4:24:43 2:38
163 808 Юрій Дзюбан 2097 4:26:20 2:39
164 812 Недосєков Сергій 2621 4:26:43 2:40
165 815 Сергій Денисов 2585 4:27:20 2:40
166 816 Олексій Масановець 2082 4:27:25 2:40
167 817 Евгений Бойченко 2307 4:27:31 2:40
168 818 Олексій Панько 2595 4:28:04 2:40
169 825 Olexandr Mityuk 2498 4:29:17 2:41
170 826 Горкуша Олександр 2048 4:29:53 2:41
171 831 Назар Миколаєць 2339 4:30:13 2:42
172 832 Володиир Куценко 2575 4:30:22 2:42
173 839 Магомедов Руслан 2054 4:31:59 2:43
174 842 Присяжнюк Михайло 2001 4:32:45 2:43
175 846 Віктор Козубський 2310 4:33:18 2:43
176 848 Костин Андрей 2107 4:33:23 2:44
177 857 Журавель Дмитро 2620 4:34:39 2:44
178 862 Денис Скорецкий 2447 4:36:14 2:45
179 866 Олег Натальченко 2317 4:37:09 2:46
180 868 Kostiantyn Сhepurnyi 2217 4:37:50 2:46
181 871 Tyshchenko Igor 2028 4:38:08 2:46
182 872 Кирил Сластунов 2577 4:38:23 2:47
183 875 Sergey Korneev 2258 4:38:39 2:47
184 880 Сергій Мороз 2612 4:40:56 2:48
185 883 Олександр Іщук 2222 4:41:45 2:49
186 885 Костянтин Троценко 2365 4:41:59 2:49
187 889 Sergey Germashev 2112 4:43:28 2:50
188 891 Ярослав Коваленко 2408 4:43:39 2:50
189 893 Южаков Сергій 2040 4:44:19 2:50
190 897 Сергій Сенчук 2363 4:45:03 2:51
191 907 Александр Морозов 2061 4:47:44 2:52
192 910 Олександр Біліловець 2214 4:48:09 2:52
193 913 В’ячеслав Северин 2582 4:49:23 2:53
194 916 Конєв Олександр 2131 4:51:20 2:54
195 919 Сергій Крівіч 2635 4:52:28 2:55
196 926 Костя Титоров 2255 4:53:24 2:56
197 929 Юрий Филиппов 2116 4:53:47 2:56
198 930 Сукач Юрій 2047 4:53:58 2:56
199 932 Єфендєєв Ярослав 2121 4:55:20 2:57
200 937 Андрій Нікітенко 2508 4:57:06 2:58
201 945 Grytsiuta Maksym 2026 4:58:14 2:58
202 960 Тарас Каліщук 2400 5:02:24 3:01
203 969 Писаний Валерій 2088 5:07:33 3:04
204 972 Вадим Коровін 2519 5:09:03 3:05
205 973 Антон Мускеєв 2293 5:09:32 3:05
206 979 Сергій Глаговський 2422 5:11:41 3:07
207 980 Pavel Dvoinos 2362 5:11:55 3:07
208 985 Алексей Смирнов 2539 5:14:08 3:08
209 987 Костянтин Крупський 2157 5:16:17 3:09
210 993 Павло Воробйов 2610 5:19:50 3:11
211 994 Сергій Родін 2420 5:19:53 3:11
212 997 Герасименко Олександр 2607 5:21:15 3:12
213 999 Чеберяк Вадим 2616 5:21:52 3:13
214 1001 Андрій Горобець 2068 5:24:29 3:14
215 1003 Олексій Стеценко 2563 5:26:19 3:15
216 1006 Святослав Галінський 2530 5:30:57 3:18
217 1011 Микола Коноваленко 2196 5:41:39 3:24
218 1013 Чорний Сергій 2153 5:41:48 3:25
219 1093 Dmitro Slotin 2015
220 1094 Artem Kuznetsov 2023
221 1095 Моргенштерн Євген 2029
222 1096 Тимченко Олександр 2031
223 1098 Проскура Олекса 2041
224 1099 Березницький Леонід 2050
225 1100 Суббота Александр 2051
226 1101 Александр Рыбальченко 2052
227 1103 Озеров Вячеслав 2058
228 1104 Рихальський Ярослав 2059
229 1108 Vadim Scherban 2079
230 1109 Лещенко Максим 2081
231 1110 jocelyn guitton 2090
232 1117 Oleksandr Lakei 2203
233 1118 Maksym Denysov 2209
234 1120 Микола Хомич 2224
235 1122 Олександр Самар 2251
236 1125 Олексій Засуха 2274
237 1126 макс дендерук 2281
238 1127 Алексей Лотыш 2284
239 1128 Сергій Дерід 2295
240 1129 Андрій Щербацький 2348
241 1132 Максим Вахненко 2360
242 1133 Олександр Лаптєв 2361
243 1134 Олег Хорошилов 2367
244 1142 Volodymyr Solohub 2421
245 1144 Вячеслав Колкер 2461
246 1157 Констянтин Дзедзюль 2584
247 1159 Грищенко Денис 2601
248 1164 Валерій Самойленко 2611
249 1165 Подшивалов Віктор 2614
250 1168 Павлюк Роман 2625
Гірські велосипеди (Ч) 40-49
Позиція Загальна позиція Прізвище Ім’я Номер Фінішний час Темп
1 117 Valeriy Semenik 2254 2:42:25 1:37
2 130 Богдан Баранецкий 2458 2:43:03 1:37
3 142 Бригіда Андрій 2008 2:48:47 1:41
4 162 Олександр Богоніс 2592 2:50:22 1:42
5 163 Сергій Циба 2349 2:50:29 1:42
6 195 Володимир Андрущенко 2517 2:54:24 1:44
7 220 Бугайов Максим 2089 2:59:24 1:47
8 279 Роман Погожих 2531 3:08:35 1:53
9 312 Максим Трінеєв 2441 3:13:39 1:56
10 319 Юрій Федорчук 2278 3:14:53 1:56
11 342 Андрей Суровягин 2228 3:16:54 1:58
12 346 Юрий Зализко 2176 3:17:14 1:58
13 372 Виктор Шевченко 2591 3:20:58 2:00
14 375 Сергій Grab Мординський 2471 3:21:33 2:00
15 377 Роман Пономаренко 2075 3:21:59 2:01
16 378 Асауленко Георгiй 2123 3:22:26 2:01
17 387 Олег Коломієць 2574 3:23:42 2:02
18 413 Сергей Бойко 2412 3:27:02 2:04
19 414 Дмитро Бабкін 2320 3:27:07 2:04
20 430 Валерий Калинковский 2409 3:28:03 2:04
21 434 Козлов Михайло 2638 3:28:22 2:05
22 437 Сергей Ложкин 2418 3:28:43 2:05
23 461 Максим Барановський 2516 3:31:26 2:06
24 479 Олег Щербак 2193 3:34:54 2:08
25 492 Василь Стельмах 2502 3:36:42 2:10
26 543 Сергей Костенко 2552 3:43:47 2:14
27 561 Савельєв Олександр 7014 3:45:36 2:15
28 565 Віталій Пеньковський 2316 3:46:01 2:15
29 588 Олег Бут 2493 3:48:59 2:17
30 598 Козуб Максим 2010 3:49:36 2:17
31 611 Олег Муравицкий 2413 3:51:47 2:19
32 632 Юрий Старик 2110 3:55:09 2:21
33 636 Сергій Бєгус 2246 3:56:27 2:21
34 655 Igor Vetokh 2009 4:00:09 2:24
35 660 Сергій Курдюков 2455 4:00:44 2:24
36 672 Микола Даневич 2534 4:03:01 2:25
37 703 Федін Дмитро 2138 4:06:51 2:28
38 705 Александр Царевский 2109 4:07:10 2:28
39 710 Георгий Лунин 2268 4:07:54 2:28
40 715 Луньов Андрій 2003 4:08:46 2:29
41 730 Олександр Заіграєв 2403 4:11:07 2:30
42 737 Павел Терентьев 2406 4:13:16 2:31
43 740 Потиенко Олег 2633 4:14:11 2:32
44 741 Андрій Письменний 2526 4:14:13 2:32
45 758 Valeriy Samoylenko 2494 4:16:51 2:34
46 766 дмитро моргун 2238 4:17:53 2:34
47 767 Александр Легкий 2330 4:18:14 2:34
48 778 Леонід Городецький 2559 4:20:05 2:36
49 801 роман нога 2429 4:25:13 2:39
50 809 Игорь Куценко 2141 4:26:24 2:39
51 810 Олексій Шкарупа 2340 4:26:36 2:39
52 822 Дмитро Петров 2164 4:28:21 2:41
53 840 Александр Давиденко 2560 4:32:01 2:43
54 849 Дмитрий Галяс 2016 4:33:23 2:44
55 858 Ігор Чернобаєв 2597 4:35:04 2:45
56 869 Багрій Олександр 2136 4:38:00 2:46
57 870 Ткаченко Олег 2036 4:38:04 2:46
58 876 Андрій Пащенко 2159 4:38:46 2:47
59 884 Олександр Кушко 2243 4:41:48 2:49
60 886 Борис Козуб 2515 4:42:25 2:49
61 887 Дмитрий Лаппо 2183 4:42:54 2:49
62 908 Андрей Пальгуев 2074 4:47:47 2:52
63 911 Виктор Тильняк 2181 4:48:20 2:53
64 917 Вадим Коточігов 2356 4:51:33 2:54
65 923 Томіленко Валерій 2623 4:53:10 2:55
66 928 Александр Орел 2522 4:53:37 2:56
67 934 Mikhail Stepanov 2280 4:56:15 2:57
68 949 Ivo van Wingerden 2450 4:58:46 2:59
69 975 Андрій Тимошенко 2264 5:09:38 3:05
70 982 Олег Курцев 2460 5:13:26 3:08
71 983 Дмитрий Юрковский 2541 5:14:05 3:08
72 984 Дмитрий Правоторов 2543 5:14:06 3:08
73 986 руслан рогожий 2297 5:15:53 3:09
74 989 Куршацов Андрей 2133 5:17:10 3:10
75 1002 Олександр Петриченко 2404 5:25:04 3:15
76 1113 Міллер Олексій 2117
77 1130 Арно Клайбрук 2350
78 1137 Олександр Суворов 2387
79 1169 Ігнатовський Сергій 2629
Гірські велосипеди (Ч) 50-59
Позиція Загальна позиція Прізвище Ім’я Номер Фінішний час Темп
1 160 Mike Rozanov 2078 2:50:19 1:42
2 167 Мартынов Александр 2169 2:51:25 1:42
3 202 Ігор Серебряков 2496 2:55:35 1:45
4 236 Зубко Олександр 2104 3:01:23 1:48
5 380 Олексій Дєговцов 2417 3:23:18 2:01
6 386 Дем’янков Володимир 2632 3:23:31 2:02
7 455 Володимир Венедіктов 2247 3:30:32 2:06
8 541 Ігор Завадський 2590 3:43:32 2:14
9 566 Олег Зіглін 2431 3:46:05 2:15
10 584 Микола Суботенко 2177 3:48:44 2:17
11 586 Nik Gubar 2257 3:48:55 2:17
12 637 Евгений Васько 2520 3:57:13 2:22
13 639 Poul Henrik Jensen 2195 3:57:51 2:22
14 701 Євтушенко Костянтин 2100 4:06:43 2:28
15 749 Володимир Бондаренко 2428 4:16:01 2:33
16 841 Андрей Абрамов 2192 4:32:32 2:43
17 861 Юрій Пімкін 2554 4:35:46 2:45
18 865 Александр Расторгуев 2334 4:37:09 2:46
19 867 Микола Самар 2250 4:37:48 2:46
20 874 Степанський Дмитро 2098 4:38:32 2:47
21 904 Юрій Легкий 2352 4:46:13 2:51
22 1148 Володимир Тітенко 2504
Гірські велосипеди (Ч) 60-69
Позиція Загальна позиція Прізвище Ім’я Номер Фінішний час Темп
1 318 Пишняк Олександр 2358 3:14:53 1:56
2 474 Пастух Ігор 2013 3:33:46 2:08
3 626 Вадим Заглянський 2244 3:53:47 2:20
4 648 Михайло Галущенко 2331 3:59:15 2:23
5 763 Володимир Костюкевич 2532 4:17:45 2:34
6 798 Борислав Кляцький 2213 4:23:41 2:38
7 963 Самара Олекандр 2135 5:04:47 3:02
Гірські велосипеди (Ж) 18-29
Позиція Загальна позиція Прізвище Ім’я Номер Фінішний час Темп
1 325 Анастасія Коваль 2551 3:15:32 1:57
2 412 Inna Kharytynytch 2154 3:27:01 2:04
3 520 Юлия Шевченко 2111 3:41:01 2:12
4 595 Katya Taradai 2161 3:49:28 2:17
5 662 Анна Сурмач 2344 4:01:08 2:24
6 686 Сільвана Каддах 2227 4:05:02 2:27
7 690 Alyona Ishchenko 2628 4:05:32 2:27
8 699 Романа Рубан 2487 4:06:25 2:27
9 706 Лисько Єлізавета 2631 4:07:10 2:28
10 709 Дарина Дубинина 2562 4:07:34 2:28
11 764 Марина Ющенко 2466 4:17:47 2:34
12 845 Галя Білинська 2309 4:33:18 2:43
13 851 Олександра Барабанщикова 2366 4:33:49 2:44
14 877 Софія Кабаєва 2355 4:39:03 2:47
15 903 Lesya Titova 2445 4:46:08 2:51
16 921 Наталія Рядова 2189 4:52:34 2:55
17 922 Анастасія Безугла 2265 4:53:05 2:55
18 925 Мария Титорова 2256 4:53:24 2:56
19 939 Siroshtan Olha 2091 4:57:27 2:58
20 948 Сироєжко Анжеліка 2129 4:58:31 2:59
21 954 Оксана Крижановська 2357 5:00:10 3:00
22 959 Наталія Криворотова 2477 5:02:18 3:01
23 970 Катерина Андрушенко 2304 5:07:49 3:04
24 976 Tatyana Zhukova 2443 5:09:38 3:05
25 981 Недоливко Анастасія 2190 5:12:05 3:07
26 988 Крупська Катерина 2156 5:16:55 3:10
27 992 Оля Лемещук 2208 5:18:03 3:10
28 996 Колобова Владислава 2606 5:21:15 3:12
29 1012 Юлiя Грихно 2197 5:41:39 3:24
30 1014 Наталія ЛісовськаМускеєва 2294 5:42:18 3:25
31 1016 Світлана Семенюк 2283 5:42:22 3:25
32 1102 Лисиця Олеся 2055
33 1111 Янощук Інна 2102
34 1115 Valeriya Ivanova 2170
35 1119 Наталя Сиротенко 2210
36 1123 Maryna Shcherba 2263
37 1131 Мар’яна Яковенко 2351
38 1136 Вікторія Бірюкова 2383
39 1140 Анна Ярмоченко 2415
40 1143 Julia Balanskaya 2424
41 1145 Марина Кытина 2469
42 1146 Наталя Король 2475
43 1150 Вікторія Бондаренко 2509
44 1151 Яна Мотицька 2510
45 1152 Дар’я Терехова 2527
46 1160 Солод Євгенія 2603
47 1161 Овчаренко Валентина 2604
48 1162 Наумова Олена 2608
49 1163 Абрамова Олена 2609
Гірські велосипеди (Ж) 30-39
Позиція Загальна позиція Прізвище Ім’я Номер Фінішний час Темп
1 457 Афанасьева Людмила 2140 3:30:46 2:06
2 494 Александра Хомутенко 2163 3:36:43 2:10
3 525 Сокол Карина 2147 3:41:14 2:12
4 573 Ніна Данченко 2372 3:47:03 2:16
5 579 Марина Чернишева 2324 3:48:05 2:16
6 628 Viktoria Alekseenko 2262 3:54:41 2:20
7 661 Євгенія Церахто 2410 4:01:02 2:24
8 678 Мірошниченко Марія 2124 4:04:23 2:26
9 689 Серба Олена 2145 4:05:27 2:27
10 702 Дяків Анна 2139 4:06:50 2:28
11 733 Галина Пацукова 2269 4:12:26 2:31
12 757 Наливайченко Марина 2012 4:16:50 2:34
13 760 Катерина Верещак 2308 4:17:27 2:34
14 774 Евгения Новицкая 2301 4:19:26 2:35
15 776 Maryna Vyshnevska 2202 4:19:39 2:35
16 799 Оля Сєрік 2194 4:23:58 2:38
17 803 Зоя Жмінько 2435 4:25:28 2:39
18 819 Юлія Ніколаєва 2299 4:28:13 2:40
19 843 Мар’яна Басько 2483 4:32:54 2:43
20 852 Елена Ющенко 2550 4:33:56 2:44
21 863 Юлия Кикалова 2389 4:36:43 2:46
22 881 Сацута Наталія 2101 4:41:31 2:48
23 895 Катерина Новицька 2333 4:44:20 2:50
24 898 Казаченко Алла 2615 4:45:04 2:51
25 901 Присяжнюк Лілія 2000 4:45:59 2:51
26 909 Ганна Шкарупа 2342 4:48:06 2:52
27 914 Анастасія Кабаєва 2385 4:50:23 2:54
28 915 Irine Galstyan 2253 4:50:40 2:54
29 924 Копиркіна Катерина 2057 4:53:14 2:55
30 935 Єрьоміна Віталія 2005 4:56:29 2:57
31 938 Наталія Нікітенко 2518 4:57:06 2:58
32 941 Михайлюк Свiтлана 2464 4:57:36 2:58
33 956 Юлия Кузьминская 2103 5:00:21 3:00
34 957 Олександра Зінченко 2525 5:01:08 3:00
35 958 Marina Komarova 2377 5:01:48 3:01
36 962 Алена Голубева 2497 5:03:58 3:02
37 967 Бєлова Анна 2056 5:07:21 3:04
38 991 Ольга Митус 2549 5:17:31 3:10
39 995 Наталія Селіверстова 2472 5:20:11 3:12
40 1010 Valerya Koneva 2288 5:37:39 3:22
41 1018 Ніконорова Ксенія 2122 5:43:42 3:26
42 1097 Siutkina Olga 2033
43 1105 Артюкова Аліна 2064
44 1106 Іванова Дарина 2069
45 1107 Pulnieva Ievgeniia 2077
46 1135 Анна Воропаєва 2379
47 1138 Ольга Белова 2390
48 1154 Марина Сидоренко 2557
49 1166 Шевчук Тетяна 2618
50 1167 Лисенко Олена 2619
Гірські велосипеди (Ж) 40-49
Позиція Загальна позиція Прізвище Ім’я Номер Фінішний час Темп
1 324 Олена Тимошенко 2231 3:15:32 1:57
2 359 Лариса Байкина 2312 3:18:28 1:59
3 612 Ірина Бондаренко 2427 3:51:52 2:19
4 615 Терентюк Вадим 2062 3:52:15 2:19
5 676 Лариса Клименко 2462 4:04:18 2:26
6 719 Наталья Магдичанская 2596 4:09:50 2:29
7 746 Ірина Васильєва 2381 4:15:15 2:33
8 811 Darina Korneeva 2259 4:26:38 2:39
9 878 Оксана Цупрун 2359 4:39:03 2:47
10 882 Сак Тетяна 2398 4:41:35 2:48
11 943 Liudmyla Kapustian 2266 4:58:06 2:58
12 998 Олена Тесленко 2337 5:21:18 3:12
13 1149 Лариса Пікалова 2505
Гірські велосипеди (Ж) 50-59
Позиція Загальна позиція Прізвище Ім’я Номер Фінішний час Темп
1 622 Анжела Корженівська 2149 3:53:14 2:19
Велосипеди Україна (Ч) 18-39
Позиція Загальна позиція Прізвище Ім’я Номер Фінішний час Темп
1 396 Олександр Денисов 7010 3:24:37 2:02
2 1180 Майданюк Віталій 7003
3 1182 Misha Kresan 7008
Велосипеди Україна (Ч) 40+
Позиція Загальна позиція Прізвище Ім’я Номер Фінішний час Темп
1 912 Олег Васильович 7009 4:49:02 2:53
2 1178 Чуйко Андрій 7001
3 1179 Хлюст Олександр 7002
4 1185 Олег Мельниченко 7013
Велосипеди Україна (Ж) 18-39
Позиція Загальна позиція Прізвище Ім’я Номер Фінішний час Темп
1 1181 катерина карпуніна 7007
2 1183 Наталія Личман 7011
3 1184 Lena Abramova 7012
Вінтажні велосипеди (Ч) 18-39
Позиція Загальна позиція Прізвище Ім’я Номер Фінішний час Темп
1 351 Олександр Либа 5002 3:17:49 1:58
2 398 Влад Шевченко 5004 3:25:03 2:03
3 738 Юрий Тыхун 5003 4:13:32 2:32
4 780 Коренухін Олександр 5001 4:20:48 2:36
5 890 Hennadiy Kornev 5005 4:43:29 2:50
6 1177 Юрій Шипота 5006
Вінтажні велосипеди (Ч) 40+
Позиція Загальна позиція Прізвище Ім’я Номер Фінішний час Темп
1 906 Cord Peters 5007 4:47:42 2:52
Унікальні ровери (Ч)
Позиція Загальна позиція Прізвище Ім’я Номер Фінішний час Темп
1 156 Сергей Абрамов 3012 2:49:58 1:41
2 193 Сергей Яременко 3014 2:54:15 1:44
3 227 Віталій Демченко 3028 2:59:49 1:47
4 241 Гліб Хропачов 3022 3:02:27 1:49
5 302 Сергій Стащенко 3029 3:11:14 1:54
6 436 Ігор Красько 3013 3:28:34 2:05
7 445 Sergey Kuts 3017 3:29:13 2:05
8 502 Евгений Малюкевич 3015 3:37:23 2:10
9 564 Андрей Сибиряков 3008 3:45:47 2:15
10 591 Денис Мостовлюк 3018 3:49:13 2:17
11 603 Оваденко Юрій 3007 3:50:45 2:18
12 604 Володимир Карпець 3035 3:50:59 2:18
13 606 Сидоренко Ярослав 3033 3:51:14 2:18
14 607 Єгор Струль 3034 3:51:14 2:18
15 630 Руадзе Сергій 3006 3:54:56 2:20
16 714 Владимир Сокожинский 3019 4:08:33 2:29
17 791 Гасашвілі Анатолій 3009 4:22:28 2:37
18 835 Шитіков Ілля 3002 4:30:37 2:42
19 855 Михаил Ильин 3020 4:34:19 2:44
20 894 Роман Третяк 3016 4:44:20 2:50
21 900 Cтанислав Рожков 3021 4:45:38 2:51
22 933 Сергій Головко 3036 4:55:28 2:57
23 946 дмитрий колпашников 3023 4:58:17 2:58
24 1173 Igor Lukashchuk 3025
25 1174 Oleksandr Kuziak 3026
26 1175 Игорь Пипа 3027
Фікси та сінглспід (Ч) 18-39
Позиція Загальна позиція Прізвище Ім’я Номер Фінішний час Темп
1 148 Anton Petrov 4011 2:49:16 1:41
2 149 Володимир Дементґєв 4012 2:49:16 1:41
3 150 Антон Кирьян 4013 2:49:19 1:41
4 151 Тарас Сірий 4006 2:49:25 1:41
5 153 Valentyn Kvachan 4010 2:49:54 1:41
6 154 Олександр Гальчук 4008 2:49:54 1:41
7 169 Honchar Kostyantin 4007 2:51:45 1:43
8 417 Захарченко Данило 4003 3:27:22 2:04
9 424 Лєвшов Антон 4002 3:27:55 2:04
10 487 Юрій Лисенко 4001 3:36:02 2:09
11 571 Denis Kovalenko 4004 3:46:58 2:16
12 575 Семен Воронков 4005 3:47:25 2:16